Location: Newark
(49.2191°N, 12.6671°E)
Time: 14:14:45
(UTC+00:00)

Transit 4A - Pass Details

Date: 29 January 2020
Orbit: 872 x 973 km, 66.8° (Epoch: 22 February)

Event Time Altitude Azimuth Distance (km) Brightness Sun altitude
Rises 04:55:19 0° 206° (SSW) 3,539 10.7 -17.9°
Reaches altitude 10° 04:57:51 10° 205° (SSW) 2,586 10.1 -17.5°
Maximum altitude 05:03:48 73° 122° (ESE) 935 8.0 -16.6°
Drops below altitude 10° 05:09:40 10° 39° (NE) 2,546 10.6 -15.6°
Sets 05:12:08 0° 37° (NE) 3,481 11.3 -15.2°
